Date String (YYYY-MM-DD hh:mm:ss) UTC,Instrument flags,Ambient pressure (hPa),Sample flow (lpm),Bypass flow (lpm),Sample temperature (°C),Ambient temperature (°C),ASC tube jacket temperature (°C),LED temperature (°C),Box temperature (°C),Sample RH (%),Span deviation,Mass concentration (μg/m³),Mass concentration (μg/m³),Mass concentration (μg/m³)
DateTimeUTC,F1_M11,P_M11,Q1_M11,Q2_M11,T1_M11,T2_M11,T3_M11,T4_M11,T5_M11,U1_M11,ZSPAN_M11,X0_M11,X2_M11,X1_M11
2022-05-01 02:00:00,,0824.3,4.99,0.00,27.9,27.3,00.0,36.8,29.7,09.4,0000.0,0009.98,0003.63,0002.55
2022-05-01 02:01:00,,0824.3,4.99,0.00,28.0,27.3,00.0,36.8,29.7,09.4,0000.0,0010.19,0003.63,0002.55
2022-05-01 02:02:00,,0824.3,5.00,0.00,28.0,27.4,00.0,36.8,29.7,09.3,0000.0,0010.30,0003.65,0002.54
2022-05-01 02:03:00,,0824.3,5.00,0.00,28.0,27.4,00.0,36.9,29.7,09.4,0000.0,0010.33,0003.64,0002.53
2022-05-01 02:04:00,,0824.3,5.01,0.00,28.0,27.4,00.0,36.9,29.7,09.3,0000.0,0010.51,0003.65,0002.52
2022-05-01 02:05:00,,0824.4,5.00,0.00,28.0,27.4,00.0,36.9,29.8,09.3,0000.0,0010.56,0003.63,0002.51
2022-05-01 02:06:00,,0824.3,5.00,0.00,28.0,27.4,00.0,36.9,29.8,09.3,0000.0,0010.40,0003.61,0002.49
2022-05-01 02:07:00,,0824.4,5.00,0.00,28.0,27.4,00.0,36.9,29.8,09.3,0000.0,0010.26,0003.58,0002.48
2022-05-01 02:08:00,,0824.4,4.99,0.00,28.0,27.4,00.0,36.9,29.8,09.3,0000.0,0009.93,0003.57,0002.49
2022-05-01 02:09:00,,0824.4,5.00,0.00,28.0,27.4,00.0,36.9,29.8,09.2,0000.0,0010.06,0003.55,0002.47
2022-05-01 02:10:00,,0824.5,5.00,0.00,28.0,27.4,00.0,36.9,29.8,09.2,0000.0,0010.39,0003.53,0002.47
2022-05-01 02:11:00,,0824.4,5.00,0.00,28.0,27.4,00.0,36.9,29.8,09.2,0000.0,0009.57,0003.53,0002.47
2022-05-01 02:12:00,,0824.4,5.00,0.00,28.1,27.4,00.0,36.9,29.8,09.2,0000.0,0009.33,0003.51,0002.46
2022-05-01 02:13:00,,0824.4,5.00,0.00,28.1,27.4,00.0,36.9,29.8,09.2,0000.0,0009.26,0003.50,0002.47
2022-05-01 02:14:00,,0824.4,5.01,0.00,28.1,27.4,00.0,36.9,29.9,09.2,0000.0,0009.61,0003.50,0002.47
2022-05-01 02:15:00,,0824.5,4.99,0.00,28.1,27.4,00.0,36.9,29.9,09.2,0000.0,0009.89,0003.46,0002.44
2022-05-01 02:16:00,,0824.5,5.00,0.00,28.1,27.4,00.0,37.0,29.9,09.1,0000.0,0010.95,0003.44,0002.43
2022-05-01 02:17:00,,0824.6,5.00,0.00,28.1,27.4,00.0,37.0,29.9,09.1,0000.0,0011.48,0003.46,0002.42
2022-05-01 02:18:00,,0824.6,5.01,0.00,28.1,27.4,00.0,37.0,29.9,09.1,0000.0,0011.21,0003.46,0002.40
2022-05-01 02:19:00,,0824.6,5.01,0.00,28.1,27.5,00.0,37.0,29.9,09.1,0000.0,0011.64,0003.44,0002.40
2022-05-01 02:20:00,,0824.6,5.00,0.00,28.1,27.5,00.0,37.0,29.9,09.1,0000.0,0010.98,0003.44,0002.40
2022-05-01 02:21:00,,0824.6,4.99,0.00,28.1,27.5,00.0,37.0,29.9,09.1,0000.0,0010.66,0003.38,0002.36
2022-05-01 02:22:00,,0824.7,5.00,0.00,28.1,27.5,00.0,37.0,29.9,09.1,0000.0,0011.41,0003.35,0002.34
2022-05-01 02:23:00,,0824.7,5.01,0.00,28.1,27.5,00.0,37.0,29.9,09.1,0000.0,0011.44,0003.33,0002.32
2022-05-01 02:24:00,,0824.8,4.99,0.00,28.1,27.5,00.0,37.0,29.9,09.1,0000.0,0011.73,0003.32,0002.30
2022-05-01 02:25:00,,0824.8,5.00,0.00,28.1,27.5,00.0,37.0,29.9,09.1,0000.0,0012.65,0003.31,0002.28
2022-05-01 02:26:00,,0824.9,5.02,0.00,28.1,27.5,00.0,37.0,29.9,09.1,0000.0,0012.67,0003.29,0002.27
2022-05-01 02:27:00,,0824.9,5.00,0.00,28.1,27.4,00.0,37.0,29.9,09.1,0000.0,0011.58,0003.28,0002.25
2022-05-01 02:28:00,,0824.9,5.01,0.00,28.1,27.4,00.0,37.0,29.9,09.1,0000.0,0011.11,0003.27,0002.26
2022-05-01 02:29:00,,0824.9,5.00,0.00,28.1,27.5,00.0,37.0,29.9,09.1,0000.0,0010.94,0003.26,0002.25
2022-05-01 02:30:00,,0824.9,4.98,0.00,28.1,27.5,00.0,37.0,29.9,09.1,0000.0,0010.28,0003.26,0002.23
2022-05-01 02:31:00,,0824.9,4.99,0.00,28.1,27.5,00.0,37.0,29.9,09.1,0000.0,0010.26,0003.23,0002.21
2022-05-01 02:32:00,,0825.0,5.02,0.00,28.1,27.5,00.0,37.0,29.9,09.1,0000.0,0010.26,0003.28,0002.22
2022-05-01 02:33:00,,0825.1,5.00,0.00,28.1,27.5,00.0,37.1,29.9,09.1,0000.0,0009.54,0003.28,0002.23
2022-05-01 02:34:00,,0825.1,4.99,0.00,28.2,27.5,00.0,37.1,29.9,09.1,0000.0,0009.45,0003.28,0002.23
2022-05-01 02:35:00,,0825.1,4.99,0.00,28.2,27.5,00.0,37.1,29.9,09.1,0000.0,0009.24,0003.30,0002.23
2022-05-01 02:36:00,,0825.1,5.02,0.00,28.2,27.5,00.0,37.1,29.9,09.1,0000.0,0008.02,0003.35,0002.23
2022-05-01 02:37:00,,0825.1,4.99,0.00,28.2,27.5,00.0,37.1,30.0,09.1,0000.0,0007.55,0003.39,0002.23
2022-05-01 02:38:00,,0825.1,5.00,0.00,28.2,27.5,00.0,37.1,30.0,09.1,0000.0,0007.99,0003.41,0002.23
2022-05-01 02:39:00,,0825.1,5.01,0.00,28.2,27.5,00.0,37.1,30.0,09.0,0000.0,0008.25,0003.42,0002.22
2022-05-01 02:40:00,,0825.1,5.01,0.00,28.2,27.5,00.0,37.1,30.0,09.0,0000.0,0008.31,0003.43,0002.22
2022-05-01 02:41:00,,0825.1,5.00,0.00,28.2,27.5,00.0,37.1,30.0,09.1,0000.0,0008.41,0003.44,0002.22
2022-05-01 02:42:00,,0825.2,5.00,0.00,28.2,27.5,00.0,37.1,30.0,09.1,0000.0,0008.42,0003.42,0002.22
2022-05-01 02:43:00,,0825.2,5.00,0.00,28.2,27.5,00.0,37.1,30.0,09.1,0000.0,0008.32,0003.41,0002.22
2022-05-01 02:44:00,,0825.2,4.99,0.00,28.2,27.5,00.0,37.1,30.0,09.1,0000.0,0008.25,0003.42,0002.21
2022-05-01 02:45:00,,0825.2,5.00,0.00,28.2,27.5,00.0,37.1,30.0,09.1,0000.0,0008.58,0003.45,0002.23
2022-05-01 02:46:00,,0825.3,5.01,0.00,28.2,27.5,00.0,37.1,30.0,09.1,0000.0,0009.34,0003.44,0002.24
2022-05-01 02:47:00,,0825.3,4.99,0.00,28.2,27.5,00.0,37.1,30.0,09.1,0000.0,0009.33,0003.40,0002.25
2022-05-01 02:48:00,,0825.3,4.99,0.00,28.2,27.5,00.0,37.1,30.0,09.1,0000.0,0009.19,0003.38,0002.27
2022-05-01 02:49:00,,0825.3,4.99,0.00,28.2,27.5,00.0,37.1,30.0,09.1,0000.0,0008.56,0003.35,0002.28
2022-05-01 02:50:00,,0825.3,5.01,0.00,28.2,27.5,00.0,37.1,30.0,09.1,0000.0,0008.33,0003.34,0002.30
2022-05-01 02:51:00,,0825.3,5.00,0.00,28.2,27.5,00.0,37.1,30.0,09.1,0000.0,0009.14,0003.36,0002.32
2022-05-01 02:52:00,,0825.3,5.00,0.00,28.2,27.5,00.0,37.1,30.0,09.1,0000.0,0009.15,0003.40,0002.34
2022-05-01 02:53:00,,0825.3,4.99,0.00,28.2,27.5,00.0,37.1,30.1,09.1,0000.0,0009.10,0003.42,0002.37
2022-05-01 02:54:00,,0825.4,5.00,0.00,28.3,27.5,00.0,37.1,30.1,09.1,0000.0,0009.34,0003.49,0002.40
2022-05-01 02:55:00,,0825.3,5.01,0.00,28.3,27.6,00.0,37.1,30.1,09.1,0000.0,0009.31,0003.49,0002.42
2022-05-01 02:56:00,,0825.4,5.01,0.00,28.3,27.6,00.0,37.1,30.1,09.1,0000.0,0009.55,0003.51,0002.45
2022-05-01 02:57:00,,0825.4,5.00,0.00,28.3,27.6,00.0,37.1,30.1,09.1,0000.0,0008.91,0003.49,0002.47
2022-05-01 02:58:00,,0825.4,5.00,0.00,28.3,27.6,00.0,37.2,30.1,09.1,0000.0,0009.30,0003.48,0002.49
2022-05-01 02:59:00,,0825.4,5.00,0.00,28.3,27.6,00.0,37.2,30.1,09.1,0000.0,0010.86,0003.52,0002.51
